Regional Weather Roundup
Issued by NWS

Home | Current Version | Previous Version | Graphics & Text | Print | Product List | Glossary On
Versions: 1 2 3 4 5 6 7 8 9 10 11 12 13 14 15 16 17 18 19 20 21 22 23 24 25 26 27 28 29 30 31 32 33 34 35 36 37 38 39 40 41 42 43 44 45 46 47 48 49 50
695
ASUS43 KTOP 210208
RWRKS

WEATHER ROUNDUP FOR KANSAS
NATIONAL WEATHER SERVICE GOODLAND KS
900 PM CDT SUN AUG 20 2017

NOTE:  "FAIR" INDICATES FEW OR NO CLOUDS BELOW 12,000 FEET WITH NO
SIGNIFICANT WEATHER AND/OR OBSTRUCTIONS TO VISIBILITY.

KSZ001>006-013>018-027>032-041>047-210300-
NORTHWEST KANSAS

CITY           SKY/WX    TMP DP  RH WIND       PRES   REMARKS
GOODLAND       MOCLDY    77  62  59 S8        29.98R
HAYS           CLOUDY    86  67  52 S12       29.92R
HILL CITY      CLEAR     84  64  50 SW5       29.91R
RUSSELL        CLOUDY    87  67  51 S14       29.90R
$$

KSZ061>065-074>080-084>089-210300-
SOUTHWEST KANSAS

CITY           SKY/WX    TMP DP  RH WIND       PRES   REMARKS
DODGE CITY     CLEAR     83  63  50 SE10      29.96R
ELKHART          N/A     74  66  76 S8          N/A
GARDEN CITY    CLEAR     80  63  55 SE9       29.96R
GREAT BEND     MOCLDY    84  69  60 SE10      29.94R
LIBERAL        PTCLDY    80  68  66 S9        29.98R
PRATT          CLOUDY    87  65  48 S9        29.96R
$$

KSZ066>073-081>083-090>101-210300-
SOUTHEAST KANSAS

CITY           SKY/WX    TMP DP  RH WIND       PRES   REMARKS
CHANUTE        CLEAR     82  70  66 S10       29.99R
COFFEYVILLE    PTCLDY    80  70  71 S6        29.98R
HUTCHINSON     PTCLDY    84  66  54 SE9       29.95R
MEDICINE LODGE   N/A     86  68  54 S8        29.94R
NEWTON         PTCLDY    81  70  69 S9        29.97R
PARSONS        CLEAR     79  70  74 CALM      30.00R
WICHITA INTL   CLEAR     86  68  54 S14       29.95R
WICHITA JABRA  CLEAR     81  72  74 S6        29.96R
WICHITA MCCONL CLEAR     84  70  61 S9        29.97R
WINFIELD       CLEAR     83  72  69 SE8       29.98R
$$

KSZ007>012-019>026-033>040-048>060-102>105-210300-
NORTHEAST KANSAS

CITY           SKY/WX    TMP DP  RH WIND       PRES   REMARKS
CONCORDIA      MOCLDY    85  69  58 S10       29.90R
EMPORIA        PTCLDY    83  72  69 S12       29.95R
LAWRENCE       MOCLDY    81  77  88 E7        29.97R
MANHATTAN      PTCLDY    85  74  69 S5        29.91R
MARYSVILLE     PTCLDY    81  73  78 SE12      29.93R
OLATHE IND     PTCLDY    82  75  79 SE18G26   30.00R
OLATHE EXE     PTCLDY    81  74  79 S15       30.00R
SALINA         PTCLDY    89  70  53 S13       29.91R
TOPEKA BILLARD PTCLDY    83  77  82 E10       29.95R
TOPEKA FORBES  PTCLDY    83  78  85 E10       29.96R
$$




USA.gov is the U.S. government's official web portal to all federal, state and local government web resources and services.